Regional Weather Roundup
Issued by NWS

Home | Current Version | Previous Version | Graphics & Text | Print | Product List | Glossary On
Versions: 1 2 3 4 5 6 7 8 9 10 11 12 13 14 15 16 17 18 19 20 21 22 23 24 25 26 27 28 29 30 31 32 33 34 35 36 37 38 39 40 41 42 43 44 45 46 47 48 49 50
240
ASUS45 KSLC 240710
RWRUT

UTAH REGIONAL WEATHER ROUNDUP
NATIONAL WEATHER SERVICE SALT LAKE CITY UT
100 AM MDT WED MAY 24 2017

UTZ001>011-023>025-240800-

NORTHERN UTAH

CITY           SKY/WX    TMP DP  RH WIND       PRES   REMARKS
BRIGHAM CITY   CLEAR     57  49  74 CALM      29.97F
HILL AFB       CLEAR     59  35  40 E14       29.98F
LOGAN          CLEAR     54  46  74 CALM      29.97F
OGDEN          CLEAR     57  38  48 S9        29.96F
SALT LAKE CITY CLEAR     66  37  34 SE10      29.96F
TOOELE VALLEY  CLEAR     59  41  51 SE10      29.97F
WENDOVER       CLEAR     67  36  31 W6        29.95F
HEBER CITY     CLEAR     43  36  75 SE5       30.06F
WEST JORDAN    CLEAR     60  48  65 SW7       29.99F

$$

UTZ011>015-024>027-240800-

CENTRAL/NORTHEAST UTAH

CITY           SKY/WX    TMP DP  RH WIND       PRES   REMARKS
PROVO AIRPORT  CLEAR     58  44  60 SE6       30.01F
MOAB/CANYONLAN CLEAR     57  28  33 CALM      30.00F
DELTA          CLEAR     54  36  50 SW5       30.02S
PRICE          CLEAR     52  34  50 NE9       30.08F
ROOSEVELT      CLEAR     46  37  71 SW5       30.06F
VERNAL         CLEAR     49  38  65 W3        30.04F

$$

UTZ013>016-019>022-027-240800-

SOUTHERN UTAH

CITY           SKY/WX    TMP DP  RH WIND       PRES   REMARKS
BRYCE CANYON   CLEAR     44  28  53 W10       30.23F
CEDAR CITY     CLEAR     61  31  32 CALM      30.07F
MILFORD        CLEAR     52  34  50 S6        30.03S
ST GEORGE      SUNNY     75  30  19 CALM      29.91
HANKSVILLE     CLEAR     57  28  33 CALM      30.03S
BLANDING       CLEAR     50  32  49 NW5       30.18S

$$

REGIONAL REPORTS     COLORADO/ARIZONA

CITY           SKY/WX    TMP DP  RH WIND       PRES   REMARKS
CRAIG, CO      CLOUDY    39  33  79 SE3       30.11F
GRAND JUNCTION PTCLDY    57  32  38 E6        30.06S
RIFLE, CO      CLEAR     47  30  51 S5        30.12S
MONTROSE, CO   CLEAR     51  28  41 SE10      30.14F
CORTEZ, CO     CLEAR     43  33  68 CALM      30.13F
COLORADO CITY    N/A     54  32  43 SE3       30.08S
PAGE, AZ       CLEAR     69  36  29 W5        30.00S
GRAND CANYON   CLEAR     41  27  57 CALM      30.19F
KINGMAN, AZ    CLEAR     67  23  19 MISG      29.95F
FLAGSTAFF, AZ  CLEAR     42  26  53 CALM      30.21F

$$

REGIONAL REPORTS    NEVADA/IDAHO/WYOMING

CITY           SKY/WX    TMP DP  RH WIND       PRES   REMARKS
LAS VEGAS, NV  CLEAR     85  24  11 CALM      29.82S
ELY, NY        CLEAR     47  29  49 S12       30.12F
ELKO, NV       CLEAR     54  37  52 CALM      30.02F
POCATELLO, ID  CLEAR     59  39  47 S8        29.93F
BURLEY, ID     CLEAR     58  43  57 S10       29.90F
FORT BRIDGER,    N/A     56  27  32 SW15      30.14F
EVANSTON, WY   CLOUDY    50  30  46 S7        30.12F
ROCK SPRINGS,  CLEAR     53  39  59 SW12      30.07F
KEMMERER, WY     N/A     48  36  61 W7        30.12F

$$




USA.gov is the U.S. government's official web portal to all federal, state and local government web resources and services.